Location: Gradillo
(41.1333°N, 14.3333°E)
Time: 10:35:57
(UTC+00:00)

Daily predictions for brighter satellites

Satellite Brightness Start Highest point End
(mag) Time Altitude Azimuth Time Altitude Azimuth Time Altitude Azimuth
Cosmos 1464 Rocket 4.4 16:01:38 10° SSW 16:08:00 72° W 16:14:24 10° N
Cosmos 1340 Rocket 2.8 16:08:00 10° N 16:12:05 71° E 16:16:08 10° SSE
SJ 16-02 3.4 16:08:37 10° NW 16:12:32 33° W 16:16:27 10° SSW
ISS -1.9 16:12:35 10° NNW 16:14:56 17° NNE 16:17:10 10° NE
Cosmos 1606 4.4 16:11:31 10° SW 16:14:58 35° WNW 16:18:28 10° N
CZ-2D R/B 4.1 16:11:54 10° SE 16:15:11 27° ENE 16:18:27 10° NNE
CZ-4B R/B 4.0 16:13:40 10° ESE 16:18:09 27° ENE 16:22:35 10° N
Nadezhda 4 Rocket 4.1 16:13:37 10° N 16:19:57 87° W 16:26:18 10° S
Cosmos 540 Rocket 3.6 16:17:06 10° S 16:22:04 55° ESE 16:27:03 10° NNE
Cosmos 2360 4.4 16:17:16 10° NNW 16:22:50 49° ENE 16:28:21 10° SE
Meteor 1-20 Rocket 4.3 16:18:26 10° N 16:24:16 71° E 16:30:05 10° SSE
CZ-2C R/B 3.4 16:20:29 10° NE 16:24:56 28° E 16:29:22 10° SSE
Cosmos 1500 Rocket 3.5 16:20:50 10° N 16:25:17 85° E 16:29:41 10° S
CZ-4B R/B 3.6 16:21:13 10° S 16:25:18 58° WSW 16:29:11 10° NNW
CZ-4C R/B 3.7 16:19:46 10° NNW 16:26:00 31° NE 16:33:06 10° E
SMAP 3.0 16:22:17 10° SSE 16:26:56 79° ENE 16:31:36 10° N
CZ-2C R/B 3.7 16:24:13 10° S 16:29:05 55° W 16:33:49 10° NNW
Cosmos 1500 3.8 16:27:25 10° NNE 16:30:49 32° ENE 16:34:10 10° SE
Cosmos 468 Rocket 4.3 16:26:41 10° SSW 16:31:48 71° WNW 16:37:00 10° NNE
Cosmos 1092 Rocket 4.0 16:28:24 10° N 16:34:46 72° E 16:41:04 10° SSE
Cosmos 1933 3.3 16:30:51 10° S 16:34:54 87° E 16:38:57 10° N
Cosmos 1898 Rocket 3.4 16:31:14 10° NNW 16:36:30 78° ENE 16:41:41 10° SSE
Cosmos 1805 Rocket 3.5 16:32:32 10° N 16:36:51 65° E 16:41:08 10° SSE
Cosmos 44 4.4 16:32:29 10° NW 16:36:57 44° WSW 16:41:09 10° S
Sich 1 3.1 16:33:20 10° N 16:37:31 50° E 16:41:42 10° SSE
Cosmos 1428 Rocket 4.4 16:33:22 10° N 16:39:29 68° E 16:45:36 10° SSE
PSLV R/B 3.6 16:36:43 10° SSE 16:40:21 63° ENE 16:44:01 10° N
deb Chang Zheng 4 3.9 16:46:01 10° SE 16:50:02 41° ENE 16:54:06 10° N
H-2A R/B 1.9 16:47:42 10° SSE 16:52:52 70° ENE 16:57:56 10° N
Cosmos 2084 3.8 16:48:52 10° NW 16:53:12 70° WSW 16:57:41 10° SSE
GPS 2-04 Rocket1 3.8 16:50:14 10° WSW 16:54:05 38° S 16:56:49 17° ESE
Cosmos 1627 Rocket 4.4 16:49:15 10° N 16:55:27 88° E 17:01:34 10° S
Meteor 1-14 Rocket 4.4 16:53:11 10° N 16:58:53 53° ENE 17:04:40 10° SSE
Cosmos 2279 Rocket 4.0 16:54:14 10° S 17:00:19 61° E 17:06:25 10° NNE
Cosmos 1666 3.0 16:57:00 10° N 17:00:31 39° ENE 17:04:00 10° SSE
SJ-11-01 4.5 16:56:43 10° SE 17:01:16 48° ENE 17:05:51 10° N
Cosmos 2322 Rocket 4.0 16:58:37 10° NNE 17:00:05 13° NNE 17:00:05 13° NNE
CZ-4C R/B 4.3 17:04:28 22° SE 17:04:28 22° SE 17:06:15 10° SSE
USA 267 4.3 16:58:13 13° NE 17:03:30 37° NNW 17:09:22 10° W
Cosmos 1697 Rocket 3.0 16:59:29 10° NNW 17:05:05 71° WSW 17:10:39 10° SSE
DEBRIS 4.1 17:04:57 10° S 17:06:15 18° SE 17:06:15 18° SE
Cosmos 2369 3.6 17:02:45 10° NNW 17:08:31 81° ENE 17:14:13 10° SSE
Cosmos 1980 Rocket 2.1 17:03:23 10° NNW 17:09:01 64° ENE 17:14:36 10° SE
COSMO-SKYMED 1 2.4 17:05:08 11° NNE 17:09:21 76° ESE 17:13:41 10° S
MOS 1-B Rocket 4.1 17:03:38 10° NNE 17:09:35 87° WNW 17:16:24 10° SSW
Meteor 1-5 Rocket 4.3 17:05:11 10° N 17:11:07 60° ENE 17:16:55 10° SSE
Cosmos 841 Rocket 3.8 17:06:59 10° SSW 17:12:07 67° WNW 17:17:15 10° NNE
Cosmos 1812 2.6 17:09:45 10° S 17:13:35 89° WNW 17:16:31 17° N
SL-24 R/B - RUBIN 2 3.5 17:09:24 10° NNW 17:13:50 59° NE 17:15:48 30° ESE
Cosmos 1634 Rocket 4.4 17:09:39 10° SSW 17:15:55 65° W 17:22:14 10° N
Cosmos 1937 Rocket 4.0 17:12:44 10° NNW 17:18:00 62° WSW 17:23:13 10° S
SL-16 R/B 3.5 17:14:25 10° N 17:17:26 21° NNE 17:17:26 21° NNE
Cosmos 2082 Rocket 2.4 17:14:04 10° SSW 17:19:45 74° WNW 17:24:27 15° NNE
Cosmos 1633 Rocket 2.9 17:16:27 10° N 17:20:49 67° E 17:25:10 10° SSE
Cosmos 921 Rocket 3.8 17:17:05 10° SSE 17:20:00 32° SE 17:20:00 32° SE
USA 229 4.5 17:16:01 10° NW 17:23:21 61° WSW 17:31:02 10° SSE
Okean O Rocket 1.5 17:23:20 10° SSE 17:27:47 89° ENE 17:32:16 10° NNW
USA 276 3.9 17:29:08 10° WNW 17:31:52 28° SW 17:32:47 24° S
Cosmos 372 Rocket 4.2 17:27:07 10° NNW 17:32:21 74° WSW 17:37:34 10° S
Cosmos 2278 3.6 17:27:16 10° NNW 17:32:59 72° ENE 17:38:40 10° SSE
Cosmos 1151 Rocket 3.5 17:30:15 10° SSW 17:34:30 59° W 17:38:08 14° N
USA 234 3.9 17:29:26 10° SSE 17:35:49 56° SW 17:42:15 10° NW
Cosmos 1655 Rocket 4.0 17:32:40 10° N 17:39:01 61° E 17:45:17 10° SSE
IRAS Rocket 4.5 17:39:33 46° ESE 17:39:33 46° ESE 17:44:25 10° S
COSMOS 2455 3.7 17:33:52 10° SW 17:39:38 47° NW 17:43:55 18° NNE
Meteor 2-15 4.3 17:34:10 10° S 17:40:16 77° E 17:45:41 14° NNE
ARGOS 3.3 17:36:02 10° S 17:41:26 72° WSW 17:46:51 10° NNW
Cosmos 1666 Rocket 4.4 17:41:19 10° NNW 17:45:38 51° W 17:49:53 10° SSW
Meteor 2-6 Rocket 4.4 17:42:47 10° SSW 17:48:35 74° W 17:53:25 15° N
Cosmos 1328 Rocket 4.1 17:44:27 10° SSW 17:48:49 59° W 17:50:52 30° NNW
ISS -1.4 17:48:58 10° NW 17:50:10 20° NW 17:50:10 20° NW
DMSP B5D2-2 3.9 17:57:01 81° E 17:57:04 82° ESE 18:02:18 10° S
NOAA 15 4.4 17:52:46 10° SSE 17:58:04 87° ENE 18:03:23 10° NNW
CZ-4B R/B 4.4 17:53:24 10° SSW 17:58:30 40° W 18:03:33 10° NNW
Lacrosse 5 rocket 3.7 17:55:52 10° NNW 17:56:31 14° NNW 17:56:31 14° NNW
GEOS 3 Rocket 3.8 18:02:09 59° N 18:02:09 59° N 18:06:31 10° NNW
SL-08 RB Rocket 4.2 17:56:46 10° S 18:01:21 59° W 18:05:56 10° NNW
ATLAS CENTAUR R/B 4.2 17:55:59 10° W 18:01:51 22° NW 18:03:21 19° NNW
CZ-2C R/B 3.5 18:01:25 10° SW 18:02:58 17° SSW 18:02:58 17° SSW
CZ-2C R/B 4.0 18:00:36 10° N 18:05:14 34° WNW 18:09:50 10° SW
Meteor 1-10 Rocket 4.4 18:00:51 10° SSW 18:06:39 72° W 18:09:02 36° N
Cosmos 1818 4.3 18:05:21 10° NNW 18:09:02 43° NNW 18:09:02 43° NNW
CZ-4C R/B 3.1 18:07:47 10° NW 18:15:17 79° WSW 18:20:11 29° SSE
Cosmos 2322 Rocket 4.4 18:40:46 10° NNW 18:41:55 16° NNW 18:41:55 16° NNW
SL-16 R/B 4.3 18:57:50 10° NNW 18:59:21 19° NW 18:59:21 19° NW
